Kaneohe MCBH, HI

10:47 AM HST on May 25, 2017 (GMT -1000)
Kaneohe Bay Marine Corps Air Facility

Weather History for PHNG - November, 2013

Change the Weather History Date:

Friday, November 1, 2013

  Actual Average Record
Temperature  
Mean Temperature 78 °F -  
Max Temperature 83 °F 79 °F 84 °F (1996)
Min Temperature 73 °F 72 °F 69 °F (1997)
Cooling Degree Days 13    
Growing Degree Days 28 (Base 50)    
Moisture  
Dew Point 67 °F    
Average Humidity 70    
Maximum Humidity 80    
Minimum Humidity 58    
Precipitation  
Precipitation 0.00 in - - ()
Sea Level Pressure  
Sea Level Pressure 30.06 in    
Wind  
Wind Speed 11 mph (ENE)    
Max Wind Speed 15 mph    
Max Gust Speed 23 mph    
Visibility 8 miles    
Events Rain    
Averages and records for this station are not official NWS values.
T = Trace of Precipitation, MM = Missing Value Source: NWS Daily Summary

Daily Weather History Graph

Daily Weather History Graph

Search for Another Location

Airport or City:

Trip Planner

Search our weather history database for the weather conditions in past years. The results will help you decide how hot, cold, wet, or windy it might be!

Date:

Astronomy

Nov. 01, 2013 Rise Set
Actual Time 6:34 AM HST 5:54 PM HST
Civil Twilight 6:11 AM HST 6:17 PM HST
Nautical Twilight 5:45 AM HST 6:43 PM HST
Astronomical Twilight 5:18 AM HST 7:10 PM HST
Moon 4:50 AM HST (11/1) 4:46 PM HST (11/1)
Length of Visible Light 12h 05m
Length of Day
11h 20m
Waning Crescent, 3% of the Moon is Illuminated
Nov 1
Waning Crescent
Nov 3
New
Nov 9
First Quarter
Nov 17
Full
Nov 25
Last Quarter

Hourly Weather History & Observations

Time (HST) Temp. Heat Index Dew Point Humidity Pressure Visibility Wind Dir Wind Speed Gust Speed Precip Events Conditions
12:57 AM 73.4 °F - 66.9 °F 80% 30.08 in 9.0 mi ENE 10.4 mph 16.1 mph N/A   Scattered Clouds
1:57 AM - - - N/A% 30.06 in 9.0 mi NE 11.5 mph 17.3 mph N/A   Scattered Clouds
2:57 AM - - - N/A% 30.05 in 10.0 mi ENE 10.4 mph - N/A   Partly Cloudy
3:57 AM 75.2 °F - 66.0 °F 73% 30.04 in 10.0 mi NE 9.2 mph 17.3 mph N/A   Partly Cloudy
4:57 AM 75.2 °F - 64.9 °F 70% 30.04 in 9.0 mi NE 12.7 mph 18.4 mph N/A   Mostly Cloudy
5:57 AM 75.2 °F - 64.9 °F 70% 30.06 in 10.0 mi NE 10.4 mph 17.3 mph 0.00 in   Mostly Cloudy
6:57 AM 77.0 °F - 64.9 °F 66% 30.07 in 10.0 mi ENE 9.2 mph - N/A   Mostly Cloudy
7:57 AM 77.0 °F - 64.9 °F 66% 30.08 in 9.0 mi NE 11.5 mph 16.1 mph N/A   Mostly Cloudy
8:57 AM 77.0 °F - 66.0 °F 69% 30.09 in 10.0 mi ENE 9.2 mph - N/A   Partly Cloudy
9:57 AM 77.0 °F - 66.9 °F 71% 30.09 in 10.0 mi ENE 10.4 mph - N/A   Clear
10:57 AM 80.1 °F 82.3 °F 66.9 °F 64% 30.08 in 7.0 mi NE 11.5 mph 19.6 mph N/A   Scattered Clouds
11:57 AM 80.1 °F 82.1 °F 66.0 °F 62% 30.05 in 7.0 mi NE 10.4 mph 18.4 mph N/A   Scattered Clouds
12:57 PM 81.1 °F 83.9 °F 68.0 °F 64% 30.03 in 9.0 mi NE 15.0 mph 20.7 mph N/A   Mostly Cloudy
1:57 PM 82.0 °F 84.9 °F 68.0 °F 62% 30.00 in 8.0 mi NE 12.7 mph 19.6 mph N/A   Scattered Clouds
2:57 PM 83.3 °F 86.4 °F 68.0 °F 60% 29.99 in 8.0 mi NE 15.0 mph 23.0 mph N/A   Mostly Cloudy
3:57 PM 83.3 °F 85.9 °F 66.9 °F 58% 29.99 in 7.0 mi NE 10.4 mph - 0.00 in   Mostly Cloudy
4:57 PM 82.4 °F 85.4 °F 68.0 °F 62% 30.00 in 7.0 mi ENE 13.8 mph 21.9 mph N/A   Mostly Cloudy
5:57 PM 80.6 °F 82.9 °F 66.9 °F 63% 30.01 in 7.0 mi East 12.7 mph 21.9 mph N/A   Mostly Cloudy
6:05 PM 77.0 °F - 66.2 °F 69% 30.04 in 1.0 mi ESE 11.5 mph 21.9 mph 0.00 in Rain Rain
6:12 PM 77.0 °F - 66.2 °F 69% 30.04 in 6.0 mi East 8.1 mph 19.6 mph 0.00 in Rain Rain
6:39 PM 77.0 °F - 66.2 °F 69% 30.04 in 6.2 mi ENE 12.7 mph 21.9 mph N/A   Overcast
6:57 PM 77.5 °F - 66.9 °F 70% 30.04 in 9.0 mi East 12.7 mph 21.9 mph N/A   Scattered Clouds
7:46 PM 77.0 °F - 66.2 °F 69% 30.07 in 6.2 mi East 11.5 mph 20.7 mph N/A   Overcast
7:55 PM 77.0 °F - 66.2 °F 69% 30.08 in 6.2 mi East 10.4 mph 21.9 mph N/A   Mostly Cloudy
7:57 PM 77.5 °F - 66.9 °F 70% 30.06 in 9.0 mi East 9.2 mph 21.9 mph N/A   Mostly Cloudy
8:16 PM 75.2 °F - 68.0 °F 78% 30.09 in - East 11.5 mph 20.7 mph N/A Rain Light Rain
8:23 PM 75.2 °F - 68.0 °F 78% 30.09 in 1.2 mi East 8.1 mph 19.6 mph N/A Rain Light Rain
8:27 PM 75.2 °F - 68.0 °F 78% 30.09 in 2.5 mi Variable 5.8 mph - N/A Rain Light Rain
8:34 PM 75.2 °F - 68.0 °F 78% 30.09 in 6.2 mi East 13.8 mph 20.7 mph N/A   Overcast
8:57 PM 75.6 °F - 68.0 °F 77% 30.08 in 7.0 mi ENE 11.5 mph 18.4 mph N/A   Overcast
9:57 PM 75.6 °F - 68.0 °F 77% 30.09 in 9.0 mi East 11.5 mph 20.7 mph N/A   Partly Cloudy
10:57 PM 75.6 °F - 66.9 °F 74% 30.09 in 8.0 mi ENE 12.7 mph 23.0 mph N/A   Partly Cloudy
11:57 PM 75.6 °F - 66.0 °F 72% 30.07 in 9.0 mi East 11.5 mph 19.6 mph N/A   Scattered Clouds